| time (UTC) | temp C | wind direction | speed KPH | gust KPH | rain 1hr cm | rain 24hr cm | rain mn cm | humidity % | barometer mb |
| 20260504201537 | 22 | 248 | 9.7 | 0.0 | 0.00 | 0.00 | 0.00 | 9 | 1004.3 |
| 20260504200111 | 22 | 213 | 11.3 | 0.0 | 0.00 | 0.00 | 0.00 | 10 | 1004.5 |
| 20260504194548 | 22 | 219 | 11.3 | 0.0 | 0.00 | 0.00 | 0.00 | 10 | 1004.8 |
| 20260504193041 | 22 | 172 | 9.7 | 0.0 | 0.00 | 0.00 | 0.00 | 11 | 1005.0 |
| 20260504191536 | 21 | 193 | 11.3 | 0.0 | 0.00 | 0.00 | 0.00 | 9 | 1005.1 |
| 20260504190035 | 21 | 219 | 8.0 | 0.0 | 0.00 | 0.00 | 0.00 | 11 | 1005.2 |
| 20260504184558 | 21 | 203 | 11.3 | 0.0 | 0.00 | 0.00 | 0.00 | 11 | 1005.6 |
| 20260504183048 | 21 | 229 | 9.7 | 0.0 | 0.00 | 0.00 | 0.00 | 11 | 1005.7 |
| 20260504181537 | 21 | 226 | 9.7 | 0.0 | 0.00 | 0.00 | 0.00 | 10 | 1005.9 |
| 20260504180036 | 21 | 234 | 8.0 | 0.0 | 0.00 | 0.00 | 0.00 | 13 | 1006.1 |
| 20260504174624 | 21 | 216 | 9.7 | 0.0 | 0.00 | 0.00 | 0.00 | 10 | 1006.3 |
| 20260504173035 | 20 | 171 | 8.0 | 0.0 | 0.00 | 0.00 | 0.00 | 14 | 1006.5 |
| 20260504171543 | 20 | 227 | 8.0 | 0.0 | 0.00 | 0.00 | 0.00 | 12 | 1006.7 |
| 20260504120107 | 6 | 309 | 0.0 | 0.0 | 0.00 | 0.00 | 0.00 | 58 | 1009.5 |
| 20260504081610 | 2 | 234 | 0.0 | 0.0 | 0.00 | 0.00 | 0.00 | 52 | 1009.9 |
| 20260504044530 | 5 | 236 | 0.0 | 0.0 | 0.00 | 0.00 | 0.00 | 34 | 1009.8 |
| 20260504043056 | 5 | 236 | 0.0 | 0.0 | 0.00 | 0.00 | 0.00 | 32 | 1009.7 |
| 20260504041545 | 6 | 236 | 0.0 | 0.0 | 0.00 | 0.00 | 0.00 | 31 | 1009.6 |
| 20260504040128 | 6 | 236 | 0.0 | 0.0 | 0.00 | 0.00 | 0.00 | 30 | 1009.5 |
| 20260504034540 | 6 | 236 | 0.0 | 0.0 | 0.00 | 0.00 | 0.00 | 28 | 1009.4 |
| 20260504033055 | 7 | 236 | 0.0 | 0.0 | 0.00 | 0.00 | 0.00 | 27 | 1009.1 |
| 20260504031545 | 7 | 236 | 0.0 | 0.0 | 0.00 | 0.00 | 0.00 | 24 | 1009.0 |
| 20260504030056 | 8 | 236 | 0.0 | 0.0 | 0.00 | 0.00 | 0.00 | 24 | 1009.0 |
| 20260504024558 | 8 | 236 | 0.0 | 0.0 | 0.00 | 0.00 | 0.00 | 21 | 1009.0 |
| 20260504023050 | 10 | 234 | 0.0 | 0.0 | 0.00 | 0.00 | 0.00 | 17 | 1009.0 |
| 20260504021545 | 10 | 234 | 0.0 | 0.0 | 0.00 | 0.00 | 0.00 | 17 | 1009.2 |
| 20260504020037 | 10 | 234 | 0.0 | 0.0 | 0.00 | 0.00 | 0.00 | 17 | 1009.3 |
| 20260504014608 | 11 | 234 | 3.2 | 0.0 | 0.00 | 0.00 | 0.00 | 13 | 1009.1 |
| 20260504013035 | 11 | 230 | 3.2 | 0.0 | 0.00 | 0.00 | 0.00 | 11 | 1008.9 |
| 20260504011539 | 11 | 244 | 4.8 | 0.0 | 0.00 | 0.00 | 0.00 | 11 | 1008.9 |
| 20260504010047 | 11 | 222 | 3.2 | 0.0 | 0.00 | 0.00 | 0.00 | 13 | 1008.9 |
| 20260504004600 | 12 | 230 | 4.8 | 0.0 | 0.00 | 0.00 | 0.00 | 11 | 1008.8 |
| 20260504003047 | 12 | 237 | 4.8 | 0.0 | 0.00 | 0.00 | 0.00 | 10 | 1008.5 |
| 20260504001545 | 12 | 237 | 3.2 | 0.0 | 0.00 | 0.00 | 0.00 | 10 | 1008.3 |
| 20260504000043 | 13 | 274 | 4.8 | 0.0 | 0.00 | 0.00 | 0.00 | 9 | 1008.2 |
| 20260503234534 | 14 | 240 | 6.4 | 0.0 | 0.00 | 0.00 | 0.00 | 7 | 1008.0 |
| 20260503233041 | 14 | 274 | 9.7 | 0.0 | 0.00 | 0.00 | 0.00 | 7 | 1008.0 |
| 20260503231610 | 15 | 271 | 9.7 | 0.0 | 0.00 | 0.00 | 0.00 | 6 | 1007.8 |
| 20260503230039 | 15 | 289 | 11.3 | 0.0 | 0.00 | 0.00 | 0.00 | 8 | 1007.8 |
| 20260503224548 | 15 | 277 | 14.5 | 0.0 | 0.00 | 0.00 | 0.00 | 6 | 1007.8 |
| 20260503223039 | 15 | 263 | 12.9 | 0.0 | 0.00 | 0.00 | 0.00 | 6 | 1007.7 |
| 20260503221534 | 15 | 260 | 14.5 | 0.0 | 0.00 | 0.00 | 0.00 | 6 | 1007.8 |
| 20260503220054 | 15 | 281 | 12.9 | 0.0 | 0.00 | 0.00 | 0.00 | 6 | 1007.7 |
| 20260503214549 | 15 | 282 | 12.9 | 0.0 | 0.00 | 0.00 | 0.00 | 7 | 1007.8 |
| 20260503213045 | 15 | 278 | 14.5 | 0.0 | 0.00 | 0.00 | 0.00 | 7 | 1007.6 |
| 20260503211545 | 15 | 278 | 11.3 | 0.0 | 0.00 | 0.00 | 0.00 | 6 | 1007.5 |
| 20260503210030 | 15 | 304 | 11.3 | 0.0 | 0.00 | 0.00 | 0.00 | 9 | 1007.5 |
| 20260503204540 | 15 | 274 | 8.0 | 0.0 | 0.00 | 0.00 | 0.00 | 8 | 1007.6 |
| 20260503203033 | 14 | 292 | 9.7 | 0.0 | 0.00 | 0.00 | 0.00 | 7 | 1007.7 |